Theta_e
342 344 344 345 344 345 346 345 345 343 337 337 334 334 335 334 334 335 335 335 335 335 335 335 335 337 338 338 338 336 336 338 338 336 338 340 340 339 340 334 329 331 333
342 343 344 346 342 344 345 345 346 342 336 336 334 334 333 333 334 334 335 336 336 336 336 335 336 336 335 335 335 333 332 333 335 336 335 334 337 339 340 340 337 330 334
341 342 343 345 345 344 344 344 345 345 345 344 343 340 333 334 335 334 335 337 337 338 337 337 336 336 337 336 334 333 333 331 332 333 333 330 333 335 336 339 340 339 332
343 342 341 345 347 348 347 343 343 345 345 345 342 343 337 332 335 335 335 336 337 337 337 336 337 336 335 334 335 334 334 332 329 329 328 327 326 330 333 334 339 340 340
345 344 342 344 348 348 347 344 343 342 343 345 343 343 343 336 334 335 335 335 335 336 336 336 334 333 333 334 334 333 333 332 331 330 328 327 327 327 327 329 334 338 339
343 345 345 343 342 345 346 347 347 345 345 345 343 338 333 337 334 335 336 336 334 333 332 331 331 331 329 327 326 326 326 326 327 329 329 328 327 328 327 327 331 334 336
343 343 345 346 345 342 343 345 346 344 343 340 339 333 333 337 337 335 336 335 334 333 332 330 326 321 320 319 319 319 322 324 324 325 330 331 328 327 328 328 328 330 333
346 345 343 346 348 345 346 347 346 345 343 335 332 334 337 336 337 337 336 335 334 332 328 322 319 319 320 321 320 320 321 324 326 327 327 327 328 328 328 328 328 327 328
343 343 341 345 348 345 346 348 349 343 339 336 333 332 336 337 334 338 338 335 335 334 325 320 320 321 321 320 318 317 314 316 323 326 327 327 328 330 329 328 329 328 327
336 337 337 341 347 348 349 349 349 341 339 337 332 333 334 332 335 339 339 337 337 334 326 321 321 323 322 321 320 313 311 311 313 314 319 326 327 327 329 329 329 329 327
342 340 334 335 344 348 348 349 349 348 343 335 336 336 335 337 336 338 339 338 338 335 329 323 323 324 323 320 315 316 307 307 308 310 314 315 318 323 325 325 326 327 327
345 342 338 337 341 348 348 350 350 349 344 341 339 340 338 339 338 340 340 339 339 334 329 323 324 324 322 320 315 309 306 306 308 311 314 317 317 317 317 319 320 321 323
346 342 339 337 341 346 348 350 350 350 349 345 342 343 341 340 340 340 339 339 337 333 329 327 327 325 323 322 316 307 306 306 308 311 315 316 317 316 315 315 315 314 315
344 343 342 341 342 345 347 349 349 349 351 347 345 343 341 342 341 339 339 339 333 331 330 331 330 326 324 323 308 306 307 306 306 308 309 310 311 311 312 312 312 313 314
344 344 343 341 341 341 344 346 346 348 350 350 345 345 341 343 341 339 339 336 332 330 329 330 328 325 324 313 306 305 307 308 308 308 308 310 312 313 313 316 318 319 320
343 345 343 343 341 340 340 344 348 351 349 348 344 338 343 341 339 339 338 331 331 331 330 329 326 324 316 306 307 306 306 312 316 317 319 319 319 319 319 319 319 320 321
344 343 344 346 344 341 341 349 350 350 348 346 344 338 343 340 339 336 333 331 331 330 331 327 326 323 306 306 306 310 317 317 318 319 319 319 319 318 317 318 318 319 321
344 344 345 346 347 345 344 345 341 339 344 347 343 342 341 340 337 335 332 331 330 330 328 326 322 309 308 306 306 315 315 317 316 316 316 317 318 319 320 319 319 320 320
345 346 346 346 347 349 346 339 334 332 338 345 344 341 340 338 335 332 328 328 330 329 324 318 311 312 311 309 312 313 313 319 317 317 318 318 319 321 321 322 323 323 323
346 347 346 346 349 350 349 345 336 340 347 346 343 341 338 330 330 328 329 329 329 324 313 312 312 313 311 309 311 312 313 317 318 319 319 319 322 323 322 322 323 324 325
346 347 348 348 349 351 352 348 345 349 348 344 340 338 335 329 331 330 330 329 321 310 311 311 312 312 310 309 310 311 312 317 320 319 320 321 322 322 321 322 324 323 325
347 349 349 350 351 356 352 351 351 347 344 341 340 337 332 332 329 329 327 317 309 307 306 309 310 310 310 310 310 307 313 318 317 318 318 321 319 320 320 321 322 326 326
348 350 351 352 356 354 352 351 348 344 340 340 339 336 332 327 329 324 314 309 306 306 305 305 306 308 306 307 307 308 318 319 317 317 317 320 319 320 317 318 322 327 327
350 351 353 358 357 354 351 348 345 342 341 339 337 333 325 327 323 315 311 307 306 305 305 305 307 307 306 306 307 311 319 317 319 317 314 316 317 318 315 317 325 328 327
351 354 359 358 357 353 349 345 342 342 339 337 333 325 326 323 316 313 309 306 305 304 304 306 307 306 306 307 307 319 319 318 317 317 316 315 315 317 315 316 324 327 326
355 361 359 358 353 349 347 341 339 333 330 328 324 325 323 317 314 311 307 305 305 304 304 305 306 306 305 305 315 319 318 316 316 314 315 315 316 314 315 313 320 325 326
Wind_Speed
6 4 3 4 3 3 4 7 8 11 12 13 16 16 16 16 14 9 9 9 9 8 6 6 7 8 8 10 9 10 10 11 11 10 9 12 17 18 20 20 20 21 19
5 3 1 3 2 2 6 8 10 12 13 14 16 19 20 18 14 9 8 7 8 9 9 9 9 9 8 8 9 11 11 11 12 12 13 13 14 16 20 22 23 22 21
5 3 1 1 2 5 7 9 11 11 14 18 19 22 25 20 14 8 8 10 11 13 11 10 11 12 11 11 11 12 11 10 10 11 14 14 14 16 18 22 25 26 25
5 4 3 3 4 8 9 11 11 12 15 18 21 23 24 24 17 11 10 12 13 14 12 14 12 11 13 14 15 16 16 14 14 15 15 15 16 18 18 18 22 27 28
5 5 6 5 5 6 9 12 13 14 18 20 23 25 25 24 17 14 12 13 14 13 13 13 13 14 15 17 19 20 20 21 21 19 18 18 16 17 20 21 21 22 29
9 8 6 8 9 8 9 11 12 14 19 20 23 24 22 17 17 17 17 16 14 10 11 13 15 18 19 21 22 22 23 23 23 23 23 21 19 16 16 17 21 22 23
13 13 12 11 11 10 11 12 12 10 13 18 27 27 23 10 17 11 21 20 12 14 15 18 18 18 18 17 18 19 20 20 22 24 25 26 23 21 19 16 16 19 20
17 17 16 14 12 10 9 11 10 8 4 11 33 27 10 16 7 16 17 16 16 13 18 17 17 17 19 22 22 22 21 21 20 20 20 22 25 25 23 21 19 17 16
20 19 18 17 14 13 13 18 13 4 9 31 22 17 9 6 30 14 18 16 14 20 16 15 16 16 19 20 21 24 25 25 23 22 21 21 21 23 25 25 24 22 21
23 23 21 20 17 14 17 20 13 6 8 23 18 15 19 20 14 17 20 20 22 15 15 13 14 18 21 21 24 24 23 23 24 25 26 25 24 23 23 24 26 25 24
20 20 21 20 19 17 22 22 21 21 9 17 4 16 20 17 19 21 23 26 23 17 15 16 16 20 22 24 24 22 27 26 25 25 24 26 27 27 26 26 27 28 27
22 20 19 19 21 22 25 23 22 24 18 17 21 23 17 18 19 18 20 25 23 15 18 18 17 20 22 21 25 29 27 25 25 25 26 26 27 28 29 30 31 32 33
25 22 19 19 20 24 25 22 23 25 24 23 20 23 22 18 18 19 20 22 18 14 15 16 14 20 18 22 28 31 29 25 24 24 26 29 31 32 34 35 34 34 35
26 23 20 20 22 25 27 25 27 26 24 22 22 20 23 18 15 14 16 16 13 15 17 20 15 14 18 22 34 31 28 29 28 28 28 30 31 34 36 38 41 43 42
28 25 21 22 21 26 29 28 30 28 27 23 21 18 24 14 11 13 11 9 7 17 21 19 21 20 26 33 33 29 28 29 29 28 30 30 33 37 39 40 43 44 46
30 26 23 21 21 23 26 23 22 23 27 19 17 21 19 10 9 8 8 7 8 12 22 22 24 27 34 31 28 28 27 28 30 29 30 34 37 38 38 39 39 40 40
32 28 24 22 22 22 22 20 21 29 36 26 20 18 9 7 6 5 5 6 10 13 20 25 22 24 31 27 27 26 28 32 34 34 33 29 28 26 25 28 28 29 31
33 30 25 24 20 16 16 11 22 32 34 29 23 11 7 6 2 6 5 8 15 19 22 25 26 29 25 24 26 29 34 37 35 32 34 26 21 19 20 23 25 29 32
34 32 26 22 17 13 16 11 32 34 33 25 13 6 4 3 4 5 7 11 16 19 19 22 24 20 21 21 25 28 35 39 34 30 26 24 20 17 17 19 23 27 28
34 30 24 17 16 15 20 19 19 18 25 16 10 6 4 2 5 6 9 12 17 21 19 18 19 18 19 23 22 27 39 40 41 31 28 22 20 16 11 11 13 20 20
31 27 21 16 14 13 14 14 8 10 15 14 11 7 3 4 5 7 9 13 17 19 16 16 17 18 20 27 26 29 32 36 42 35 29 26 28 17 14 15 12 6 13
25 19 17 14 10 9 7 9 9 11 13 12 8 7 5 3 4 7 11 14 16 18 18 15 15 19 22 23 26 33 35 39 38 36 38 34 30 20 22 25 21 7 7
15 13 13 10 8 6 9 12 12 14 11 11 11 4 2 1 4 9 11 15 16 14 14 16 19 20 26 27 31 34 37 39 30 34 37 34 30 23 30 25 15 4 4
8 9 8 8 9 12 10 10 15 15 12 13 7 5 2 2 6 9 12 14 14 13 12 14 15 19 23 25 26 29 34 32 30 34 36 33 33 22 35 24 14 10 9
9 9 10 10 13 17 12 13 13 15 13 10 8 5 2 4 7 10 13 13 13 12 10 12 14 17 17 20 23 27 33 40 40 34 35 30 32 22 32 32 22 16 15
11 12 14 15 17 14 12 13 14 14 12 10 9 6 4 5 8 11 13 14 14 14 15 15 15 17 18 21 22 26 31 36 38 25 34 32 30 22 13 38 29 20 16
Wind_Direction
156 125 66 44 100 84 43 16 14 10 9 16 5 356 343 334 325 313 330 334 336 339 338 324 322 309 302 301 297 304 302 293 296 289 290 280 264 257 253 251 248 248 241
167 166 37 50 69 7 356 5 9 13 19 7 359 358 353 345 337 304 308 320 329 333 330 321 316 321 300 297 303 308 308 298 294 291 294 286 276 272 258 252 247 246 241
189 209 283 100 11 344 341 348 353 354 360 356 355 349 353 355 351 331 317 309 310 314 303 298 289 293 291 295 298 297 305 302 289 283 285 285 283 273 268 259 249 245 244
214 234 246 257 307 331 335 333 338 344 353 350 349 348 347 353 359 341 324 320 322 321 307 303 299 296 295 297 298 298 294 288 283 284 281 281 277 273 271 269 258 248 243
236 260 259 252 295 326 335 342 337 337 345 345 347 348 344 341 342 346 345 338 329 308 294 294 298 301 298 295 292 290 289 288 284 279 272 277 279 278 273 269 262 254 247
244 263 275 277 275 291 310 330 335 349 344 338 340 329 340 335 335 318 322 321 317 299 295 293 294 296 295 294 293 292 289 288 284 276 273 268 265 274 276 271 265 260 254
257 267 270 286 286 276 299 314 336 345 325 341 336 325 319 321 333 318 326 309 304 307 308 308 308 309 308 307 302 300 300 296 286 277 271 267 265 261 269 277 273 266 262
262 264 262 272 275 265 303 320 295 304 331 340 316 307 308 320 327 311 320 316 308 321 322 318 318 319 322 327 323 315 306 299 292 287 283 272 262 260 258 261 267 268 262
262 267 263 260 266 263 284 274 281 78 36 349 324 306 337 325 317 322 309 305 295 308 316 312 314 319 321 320 318 314 306 298 291 284 280 275 268 261 257 254 257 261 261
265 264 261 254 259 259 272 280 260 156 24 3 352 310 299 291 295 299 299 300 302 306 309 315 319 326 329 323 319 316 309 302 296 288 281 274 268 262 256 250 248 250 252
264 263 258 254 247 251 264 276 271 274 283 329 270 293 289 291 292 267 281 299 307 315 314 320 323 328 328 324 325 318 315 306 296 290 285 279 272 266 259 253 250 248 247
265 263 260 254 239 249 261 275 270 271 283 289 282 296 307 295 285 269 271 296 305 308 321 323 324 326 328 325 324 321 315 306 299 293 288 283 278 274 269 263 258 255 252
264 262 262 254 243 247 260 270 270 271 277 277 284 288 324 299 279 272 279 291 296 309 322 321 322 333 329 321 325 323 318 312 302 292 285 282 279 275 273 270 266 265 261
265 266 260 258 250 251 258 264 269 273 280 281 285 290 320 310 287 278 293 287 309 308 313 321 322 327 325 323 327 323 320 314 310 301 296 289 283 280 278 274 270 271 270
264 267 264 259 257 256 260 263 271 277 284 286 293 286 312 300 283 292 300 290 280 308 312 320 323 323 322 327 325 325 323 317 311 305 299 293 286 282 277 270 267 267 267
267 268 267 265 261 257 261 261 267 276 276 282 288 302 302 292 286 275 274 289 289 289 299 312 316 318 326 326 330 332 331 328 325 320 310 298 290 281 274 270 268 266 264
270 269 271 270 264 257 263 267 289 297 289 289 282 305 276 278 284 281 301 295 300 301 301 309 312 313 324 332 337 343 345 341 332 324 316 306 298 289 280 274 270 261 256
271 272 272 272 269 263 263 312 311 282 287 283 292 294 260 282 289 300 296 312 312 309 306 306 314 324 327 337 341 345 348 343 329 324 320 318 310 296 284 276 266 258 255
271 274 275 274 272 246 230 203 283 288 259 268 277 232 264 252 303 281 306 312 312 312 309 310 315 321 327 334 344 343 344 346 336 325 334 339 326 317 299 281 267 261 255
270 272 278 276 260 245 236 295 264 244 255 249 228 201 259 271 268 288 311 317 313 312 314 321 319 325 332 334 335 337 341 344 346 349 355 353 352 343 350 337 303 268 251
273 275 272 260 256 251 250 282 223 232 222 204 192 191 247 271 275 301 314 316 319 324 328 326 330 331 335 340 341 342 337 337 357 356 3 8 0 356 357 354 327 281 243
276 273 265 250 243 239 225 218 180 175 182 177 182 199 212 255 299 317 326 330 333 336 337 338 335 336 339 340 340 347 345 347 355 359 0 8 5 12 359 348 334 282 232
271 258 246 229 220 198 170 161 164 167 165 181 182 203 164 330 338 340 345 348 346 343 346 346 352 350 347 349 347 348 353 353 2 4 3 7 13 26 6 354 337 191 174
242 231 215 198 176 155 146 146 161 161 166 167 172 142 105 19 359 358 1 357 355 357 355 359 359 356 353 348 350 354 359 354 16 17 7 354 13 26 19 28 57 99 105
200 184 178 168 158 139 142 147 147 154 157 159 149 128 98 22 14 6 3 2 6 12 18 15 10 5 2 357 359 9 10 15 15 18 12 9 14 27 28 46 77 99 106
166 164 156 153 151 144 135 139 147 143 145 147 135 119 65 29 18 8 3 8 14 16 25 26 26 23 20 16 18 19 17 21 22 12 14 27 31 34 32 46 65 86 96